sat.trackr.live / text

‹ back to catalog

LUMELITE-4

NORAD 56309 · 2023-057B

PAYLOAD ACTIVE UNKNOWN

§ Identity

Operator
Country
SING
Launch date
2023-04-22
Launch site
SRILR
Launch vehicle
Mass (kg)
RCS (m²)

External: N2YO · Heavens-Above · Gunter

§ Orbital elements

Epoch: 2026-09-21T23:03:22.999968Z

Period
94.51 min
Inclination
9.9919°
Eccentricity
0.0003751
Mean motion
15.23679949 rev/d
Perigee alt
492.2 km
Apogee alt
497.3 km
Semi-major
6,872.9 km
B*
3.1665e-4
RAAN
46.1773°
Arg perigee
100.3682°
Mean anomaly
259.6957°
Rev number
18,883

§ Raw data

LUMELITE-41 56309U 23057B   26264.96068287  .00008767  00000+0  31665-3 0  99972 56309   9.9919  46.1773 0003751 100.3682 259.6957 15.23679949188832

JSON: /api/v1/satellites/56309 · /tle

For live sub-satellite position, see the globe view (requires WebGL).

§ Visibility from observer

Set your observer location to see the next 7 days of passes ≥ 10°. The values pass through the URL so the page stays shareable.

No JS? Fill the form by hand. The geolocation button needs JavaScript.